Location: Cheyres
(46.8153°N, 6.7877°E)
Time: 11:49:35
(UTC+00:00)

Gbstr 26 Del rocket - Pass Details

Date: 25 September 2021
Orbit: 492 x 1263 km, 51.8° (Epoch: 18 October)

Event Time Altitude Azimuth Distance (km) Brightness Sun altitude
Exits shadow 01:11:14 36° 93° (E) 1,776 5.4 -38.5°
Drops below altitude 10° 01:15:13 10° 102° (ESE) 2,982 6.7 -38.1°
Sets 01:17:47 0° 105° (ESE) 3,846 7.4 -37.9°
